| time (UTC) | temp C | wind direction | speed KPH | gust KPH | rain 1hr cm | rain 24hr cm | rain mn cm | humidity % | barometer mb |
| 20260505093033 | 15 | 213 | 0.0 | 0.0 | 0.00 | 0.00 | 0.00 | 64 | 1011.6 |
| 20260505091511 | 15 | 211 | 0.0 | 0.0 | 0.00 | 0.00 | 0.00 | 64 | 1011.4 |
| 20260505090009 | 15 | 254 | 0.0 | 0.0 | 0.00 | 0.00 | 0.00 | 65 | 1011.3 |
| 20260505084526 | 15 | 128 | 0.0 | 0.0 | 0.00 | 0.00 | 0.00 | 66 | 1011.3 |
| 20260505083020 | 14 | 227 | 0.0 | 0.0 | 0.00 | 0.00 | 0.00 | 68 | 1011.3 |
| 20260505081519 | 14 | 252 | 0.0 | 0.0 | 0.00 | 0.00 | 0.00 | 68 | 1011.3 |
| 20260505080009 | 14 | 223 | 0.0 | 0.0 | 0.00 | 0.00 | 0.00 | 69 | 1011.2 |
| 20260505074531 | 14 | 235 | 0.0 | 0.0 | 0.00 | 0.00 | 0.00 | 70 | 1010.9 |
| 20260505073048 | 14 | 194 | 0.0 | 0.0 | 0.00 | 0.00 | 0.00 | 71 | 1011.1 |
| 20260505071514 | 13 | 225 | 0.0 | 0.0 | 0.00 | 0.00 | 0.00 | 72 | 1010.9 |
| 20260505070012 | 13 | 223 | 0.0 | 0.0 | 0.00 | 0.00 | 0.00 | 73 | 1010.7 |
| 20260505064535 | 13 | 230 | 0.0 | 0.0 | 0.00 | 0.00 | 0.00 | 75 | 1010.8 |
| 20260505063011 | 13 | 242 | 0.0 | 0.0 | 0.00 | 0.00 | 0.00 | 75 | 1010.8 |
| 20260505061529 | 13 | 259 | 0.0 | 0.0 | 0.00 | 0.00 | 0.00 | 74 | 1010.8 |
| 20260505060024 | 13 | 259 | 0.0 | 0.0 | 0.00 | 0.00 | 0.00 | 73 | 1010.8 |
| 20260505054522 | 13 | 259 | 0.0 | 0.0 | 0.00 | 0.00 | 0.00 | 73 | 1010.8 |
| 20260505053020 | 14 | 259 | 0.0 | 0.0 | 0.00 | 0.00 | 0.00 | 73 | 1010.8 |
| 20260505051519 | 14 | 259 | 0.0 | 0.0 | 0.00 | 0.00 | 0.00 | 72 | 1010.9 |
| 20260505041528 | 16 | 259 | 0.0 | 0.0 | 0.00 | 0.00 | 0.00 | 64 | 1010.9 |
| 20260505040026 | 17 | 259 | 0.0 | 0.0 | 0.00 | 0.00 | 0.00 | 63 | 1010.9 |
| 20260505034515 | 17 | 228 | 0.0 | 0.0 | 0.00 | 0.00 | 0.00 | 61 | 1011.0 |
| 20260505033009 | 17 | 229 | 0.0 | 0.0 | 0.00 | 0.00 | 0.00 | 60 | 1011.0 |
| 20260505031534 | 18 | 226 | 0.0 | 0.0 | 0.00 | 0.00 | 0.00 | 59 | 1010.9 |
| 20260505030025 | 18 | 248 | 0.0 | 0.0 | 0.00 | 0.00 | 0.00 | 57 | 1010.8 |
| 20260505024522 | 18 | 254 | 0.0 | 0.0 | 0.00 | 0.00 | 0.00 | 56 | 1010.8 |
| 20260505023019 | 19 | 227 | 0.0 | 0.0 | 0.00 | 0.00 | 0.00 | 54 | 1010.7 |
| 20260505021510 | 19 | 238 | 0.0 | 0.0 | 0.00 | 0.00 | 0.00 | 53 | 1010.7 |
| 20260505020023 | 20 | 276 | 0.0 | 0.0 | 0.00 | 0.00 | 0.00 | 52 | 1010.7 |
| 20260505014517 | 20 | 230 | 0.0 | 0.0 | 0.00 | 0.00 | 0.00 | 50 | 1010.5 |
| 20260505013012 | 20 | 198 | 0.0 | 0.0 | 0.00 | 0.00 | 0.00 | 49 | 1010.3 |
| 20260505011513 | 20 | 227 | 0.0 | 0.0 | 0.00 | 0.00 | 0.00 | 48 | 1010.2 |
| 20260505010020 | 21 | 246 | 0.0 | 0.0 | 0.00 | 0.00 | 0.00 | 47 | 1010.0 |
| 20260505004536 | 21 | 223 | 0.0 | 0.0 | 0.00 | 0.00 | 0.00 | 46 | 1009.9 |
| 20260505003026 | 21 | 180 | 0.0 | 0.0 | 0.00 | 0.00 | 0.00 | 46 | 1009.9 |
| 20260505001522 | 22 | 210 | 0.0 | 0.0 | 0.00 | 0.00 | 0.00 | 44 | 1009.8 |
| 20260505000012 | 22 | 171 | 0.0 | 0.0 | 0.00 | 0.00 | 0.00 | 44 | 1009.8 |
| 20260504234528 | 22 | 246 | 0.0 | 0.0 | 0.00 | 0.00 | 0.00 | 43 | 1009.7 |
| 20260504233046 | 22 | 226 | 0.0 | 0.0 | 0.00 | 0.00 | 0.00 | 42 | 1009.6 |
| 20260504231524 | 23 | 188 | 0.0 | 0.0 | 0.00 | 0.00 | 0.00 | 41 | 1009.6 |
| 20260504230026 | 23 | 207 | 0.0 | 0.0 | 0.00 | 0.00 | 0.00 | 41 | 1009.6 |
| 20260504224521 | 23 | 132 | 4.8 | 14.5 | 0.00 | 0.00 | 0.00 | 39 | 1009.4 |
| 20260504223017 | 23 | 252 | 0.0 | 12.9 | 0.00 | 0.00 | 0.00 | 39 | 1009.3 |
| 20260504221510 | 24 | 59 | 3.2 | 14.5 | 0.00 | 0.00 | 0.00 | 37 | 1009.3 |
| 20260504220027 | 25 | 113 | 4.8 | 19.3 | 0.00 | 0.00 | 0.00 | 36 | 1009.5 |
| 20260504214524 | 25 | 234 | 0.0 | 14.5 | 0.00 | 0.00 | 0.00 | 35 | 1009.5 |
| 20260504213020 | 26 | 213 | 0.0 | 16.1 | 0.00 | 0.00 | 0.00 | 34 | 1009.6 |
| 20260504211522 | 26 | 191 | 0.0 | 17.7 | 0.00 | 0.00 | 0.00 | 35 | 1009.6 |
| 20260504210019 | 26 | 203 | 4.8 | 19.3 | 0.00 | 0.00 | 0.00 | 33 | 1009.4 |
| 20260504204517 | 27 | 197 | 0.0 | 0.0 | 0.00 | 0.00 | 0.00 | 31 | 1009.3 |
| 20260504203033 | 26 | 202 | 0.0 | 11.3 | 0.00 | 0.00 | 0.00 | 35 | 1009.3 |
| 20260504201531 | 26 | 202 | 1.6 | 17.7 | 0.00 | 0.00 | 0.00 | 35 | 1009.6 |
| 20260504200046 | 26 | 194 | 0.0 | 1.6 | 0.00 | 0.00 | 0.00 | 36 | 1009.7 |
| 20260504194520 | 26 | 180 | 3.2 | 17.7 | 0.00 | 0.00 | 0.00 | 34 | 1010.0 |
| 20260504193034 | 26 | 153 | 0.0 | 14.5 | 0.00 | 0.00 | 0.00 | 34 | 1010.1 |
| 20260504191545 | 26 | 173 | 0.0 | 1.6 | 0.00 | 0.00 | 0.00 | 34 | 1010.4 |
| 20260504190045 | 25 | 275 | 0.0 | 16.1 | 0.00 | 0.00 | 0.00 | 34 | 1010.7 |
| 20260504184516 | 25 | 232 | 0.0 | 0.0 | 0.00 | 0.00 | 0.00 | 34 | 1010.9 |
| 20260504183011 | 25 | 180 | 0.0 | 16.1 | 0.00 | 0.00 | 0.00 | 35 | 1011.2 |
| 20260504181526 | 25 | 200 | 0.0 | 14.5 | 0.00 | 0.00 | 0.00 | 36 | 1011.5 |
| 20260504180016 | 25 | 240 | 1.6 | 11.3 | 0.00 | 0.00 | 0.00 | 37 | 1011.8 |
| 20260504174512 | 24 | 195 | 0.0 | 11.3 | 0.00 | 0.00 | 0.00 | 39 | 1011.9 |
| 20260504173026 | 23 | 200 | 0.0 | 0.0 | 0.00 | 0.00 | 0.00 | 38 | 1012.1 |
| 20260504171520 | 23 | 178 | 0.0 | 6.4 | 0.00 | 0.00 | 0.00 | 36 | 1012.3 |